Theta_e
326 327 326 327 327 328 325 324 327 326 325 328 329 329 330 331 328 324 321 314 311 316 321 323 324 322 322 323 322 321 321 322 323 324 325 325 326 326 326 326 326 325 325 325 324 323 323 323 320 318 319 321 325 327 327 328 329 328 327 327 326 325 325 324 324 323 322 323 325 324 323 323 321 320 320 320 320 321 323 325 325 325 326 327 328
327 325 326 325 325 326 324 323 326 326 325 328 330 330 330 329 325 324 320 312 315 321 323 324 323 322 322 322 322 321 321 322 322 322 321 319 319 321 320 321 321 321 321 321 322 323 323 322 319 319 321 321 322 324 325 327 328 327 328 327 326 325 324 324 323 321 320 322 324 324 323 322 321 320 319 320 319 319 321 322 324 324 326 327 328
327 325 325 324 323 324 324 323 325 326 326 327 329 329 330 327 323 323 318 312 318 323 322 322 322 322 321 320 321 322 321 323 320 319 320 318 319 319 316 318 320 320 318 318 321 323 322 322 320 319 321 321 323 324 324 324 325 326 327 325 325 325 322 321 321 319 320 323 324 323 324 323 323 321 318 319 320 319 320 321 323 325 325 326 327
326 326 325 324 323 323 324 323 324 325 326 328 328 329 330 327 324 325 319 314 317 320 321 321 320 321 321 320 322 322 318 318 317 316 319 319 318 317 314 315 317 319 320 320 321 321 321 321 321 321 321 321 323 324 324 323 323 323 321 320 322 323 322 321 319 318 321 324 324 324 325 324 324 322 319 319 320 319 321 321 321 324 324 324 325
326 327 326 323 324 324 324 325 325 324 325 328 328 329 330 326 326 326 320 316 316 317 319 318 316 318 318 318 320 318 314 316 318 317 318 318 316 314 313 314 315 317 320 320 319 319 319 320 319 321 322 322 322 322 323 323 322 321 320 320 321 321 322 322 320 320 321 322 324 325 325 324 325 323 320 319 319 319 320 320 320 321 321 322 322
326 326 325 324 325 325 324 325 326 324 324 327 327 329 330 324 324 326 320 318 316 315 317 314 313 315 314 315 315 314 316 319 319 319 320 319 317 315 315 315 315 315 317 319 319 318 319 320 319 319 321 322 322 322 322 322 321 321 322 322 322 321 321 322 321 322 322 322 323 324 323 322 323 323 321 321 320 318 318 318 319 319 319 320 320
327 327 325 324 325 324 324 323 324 323 323 325 325 326 328 324 326 324 320 319 316 314 315 313 314 317 315 315 315 316 319 320 319 321 320 318 316 313 312 313 311 313 317 319 319 319 319 319 318 318 318 319 319 319 320 321 321 323 324 323 323 322 322 322 323 323 322 322 322 321 320 321 322 322 322 322 321 321 319 317 317 318 319 319 319
326 327 325 325 324 324 324 323 323 323 321 324 324 325 327 326 326 323 320 321 317 314 314 312 314 317 316 317 317 318 321 319 319 320 317 316 315 313 314 317 316 317 320 320 319 319 319 319 318 317 317 317 318 319 320 322 322 322 323 323 323 323 323 323 322 323 323 321 320 320 320 321 322 322 322 322 322 323 322 321 320 320 320 320 319
320 324 326 326 326 325 325 324 324 324 322 323 325 325 325 325 325 323 322 322 317 313 313 313 313 315 316 317 317 319 320 318 319 318 316 316 318 318 318 318 317 317 317 316 315 314 315 316 317 315 315 315 316 316 316 318 320 319 319 320 320 319 320 322 322 321 321 320 319 320 320 321 321 321 321 322 323 323 324 324 323 323 322 322 323
319 320 323 324 325 325 325 325 326 324 323 324 325 325 323 323 325 323 322 322 318 312 313 314 313 315 317 318 318 319 318 318 319 317 316 318 319 320 318 315 313 312 311 310 310 309 309 310 311 311 312 313 312 311 308 308 310 310 309 311 310 308 311 316 318 318 318 317 316 318 319 319 319 319 320 320 321 321 322 323 323 323 322 321 322
319 319 320 320 321 323 323 324 325 325 325 324 325 328 326 324 325 323 321 323 318 312 313 314 314 316 318 318 318 318 317 318 319 316 316 318 318 319 318 316 314 310 308 308 307 307 307 307 307 308 310 312 311 310 306 304 304 304 302 303 304 302 302 305 307 308 309 309 310 314 316 317 316 316 317 317 317 318 318 317 317 318 319 318 318
319 319 321 323 322 322 322 322 323 324 326 325 326 330 329 325 325 324 322 322 318 312 312 314 315 317 318 318 318 318 316 317 318 317 317 318 318 318 318 318 316 311 308 308 307 307 307 307 306 306 308 309 310 311 310 307 305 305 304 303 303 303 303 303 303 303 303 304 304 306 308 310 309 308 308 309 309 310 311 312 314 316 317 317 317
320 321 322 323 322 322 323 322 323 325 327 327 325 328 328 325 325 324 322 321 317 312 313 314 316 318 319 318 318 317 315 317 317 316 318 318 317 318 318 317 317 314 312 310 308 308 307 307 307 306 306 307 308 310 310 308 306 305 305 305 305 305 305 304 305 304 304 304 303 303 304 305 304 304 303 304 305 305 309 313 315 315 315 314 314
322 324 324 324 323 325 326 323 324 326 327 328 326 327 328 328 328 325 322 322 316 312 314 314 315 319 320 319 318 315 313 315 317 316 317 318 317 318 318 318 317 316 315 312 309 309 310 309 307 306 306 306 306 306 308 311 310 307 305 305 305 305 305 305 305 305 304 304 303 303 304 303 303 303 304 306 308 309 311 313 312 310 311 313 314
323 325 326 325 325 327 329 328 328 327 327 330 330 329 329 331 331 325 322 321 314 312 316 314 315 320 321 320 319 316 312 312 316 316 316 317 317 317 317 318 317 317 316 314 311 311 311 309 307 307 307 306 306 306 306 309 311 308 306 306 305 305 305 305 305 305 304 304 303 303 303 303 303 303 303 304 306 307 307 308 308 309 311 312 313
323 325 326 326 325 326 328 330 330 328 328 329 329 330 329 328 328 325 323 320 313 313 316 314 315 320 322 321 320 317 313 312 315 316 315 317 317 315 316 317 317 317 316 314 311 311 310 309 307 307 307 306 306 306 306 306 307 307 306 305 305 305 305 305 305 305 304 304 304 303 304 303 303 303 303 303 303 303 303 303 306 309 311 311 312
322 323 324 325 327 327 327 328 329 329 329 328 327 328 327 325 326 325 323 319 315 314 315 315 316 320 322 321 320 319 316 314 316 317 315 316 317 316 315 317 317 317 316 314 311 310 310 309 308 308 307 307 307 306 307 306 306 306 306 305 305 305 305 305 305 305 304 304 304 304 304 303 303 303 303 302 302 302 302 302 303 304 307 310 313
322 322 322 323 326 327 327 327 328 328 327 327 327 327 325 324 325 324 322 321 318 314 314 315 316 319 321 322 320 320 318 316 316 317 316 316 317 317 316 316 317 318 317 316 313 311 310 310 309 308 307 308 307 307 306 306 307 307 306 306 306 304 305 305 305 305 305 304 304 304 304 304 303 303 303 303 302 302 302 302 302 302 303 305 308
321 322 322 323 325 326 327 327 327 328 326 326 326 325 325 324 324 324 323 323 322 319 316 315 317 320 321 321 320 320 319 319 317 318 318 317 317 317 317 315 317 318 318 319 316 313 312 311 310 309 308 308 308 308 307 306 308 308 307 307 306 305 307 306 305 305 305 305 305 305 305 305 304 304 304 304 303 303 303 302 302 302 302 302 303
321 321 322 322 323 325 326 327 327 327 327 326 326 325 326 325 325 324 324 322 323 323 321 318 318 320 321 321 321 321 320 320 319 318 319 319 318 318 318 317 317 318 319 320 318 315 314 313 311 310 309 309 308 308 308 307 308 308 307 308 307 306 309 308 305 305 305 305 306 306 305 305 305 304 305 305 305 306 306 305 305 305 306 305 305
320 321 321 321 321 322 324 325 326 326 326 325 325 325 325 325 326 325 323 322 323 325 324 321 320 321 322 321 321 321 320 320 319 319 319 320 319 317 317 317 318 318 318 319 319 318 317 316 315 314 313 312 310 309 308 307 308 308 307 309 308 307 309 309 307 306 305 305 305 306 307 306 305 305 304 304 306 307 307 306 306 307 308 309 308
320 321 321 321 321 321 322 322 323 325 325 325 325 325 325 325 326 325 325 323 323 324 324 323 322 322 321 321 321 320 319 318 318 318 319 320 318 317 317 318 318 318 318 319 319 319 319 318 317 317 316 315 314 312 310 308 309 309 309 310 309 307 308 310 309 306 306 307 305 305 306 307 305 305 304 305 306 306 306 306 306 307 307 307 307
318 319 320 320 320 320 321 320 320 322 324 324 324 324 325 325 324 324 324 323 323 323 323 323 323 322 320 321 322 320 319 320 319 319 320 319 318 318 318 317 317 318 318 318 319 318 318 318 318 318 318 318 317 315 314 311 310 310 310 310 309 308 308 309 309 307 307 309 307 305 306 306 305 305 304 304 305 305 305 306 306 306 305 305 305
318 318 318 318 318 319 319 318 318 318 319 320 322 323 324 323 324 324 324 323 323 323 323 322 322 322 321 321 322 322 321 321 320 319 320 319 318 319 318 317 317 318 317 318 318 318 318 318 318 318 318 318 318 317 316 315 313 311 311 311 309 308 308 309 308 307 308 308 308 307 306 306 306 305 304 304 305 307 307 306 305 304 304 305 305
317 317 316 316 316 316 316 316 316 316 316 317 319 321 322 322 322 323 323 323 324 323 323 323 323 323 323 324 324 324 322 320 318 319 319 318 318 318 318 318 318 317 318 318 318 318 318 318 318 318 318 318 318 318 317 316 315 313 312 312 311 309 309 309 309 308 308 308 308 307 306 306 306 305 304 304 306 306 305 304 303 302 303 303 304
316 315 315 314 314 314 314 314 314 315 315 315 316 317 319 320 321 321 322 322 323 323 324 324 324 324 324 325 325 324 323 321 319 318 318 318 318 319 318 318 318 317 317 317 317 317 318 318 318 318 318 318 318 318 318 317 316 315 313 313 312 311 310 310 309 309 309 308 308 307 306 305 305 304 304 304 304 303 302 302 302 301 301 301 302
315 315 314 314 313 313 313 313 312 313 313 313 313 313 314 316 317 319 319 320 321 321 322 322 323 324 324 324 324 324 323 321 319 318 318 318 318 319 319 318 317 316 316 316 316 316 317 316 317 317 318 319 318 318 318 318 317 315 315 314 313 312 311 311 310 310 309 308 308 307 307 305 305 304 304 303 303 303 301 301 300 299 299 298 299
316 315 314 314 313 312 312 312 312 312 312 312 313 312 312 312 313 313 314 315 317 317 317 318 319 319 320 320 319 318 316 314 313 314 313 314 315 316 317 316 317 317 317 317 316 316 316 316 316 317 318 318 319 318 318 318 317 316 315 315 314 313 312 311 310 310 309 308 308 307 306 305 305 304 304 303 303 302 300 299 299 298 298 297 297
316 315 315 314 313 313 312 312 312 312 312 312 312 312 311 310 310 309 309 310 311 312 311 312 312 311 311 311 310 310 310 309 310 311 311 312 312 312 313 313 315 316 316 316 316 317 318 317 316 317 317 318 318 319 319 318 318 317 316 315 314 314 313 312 311 310 309 308 307 306 305 305 305 305 304 303 303 302 301 299 298 297 297 296 296
314 315 315 315 314 313 312 311 311 311 312 312 312 311 311 310 309 308 308 307 308 309 309 309 309 307 307 308 309 309 309 309 311 313 312 312 312 313 313 313 314 315 314 314 315 317 318 317 316 317 318 318 318 318 319 319 318 317 316 315 315 314 314 312 311 311 310 308 307 306 305 305 305 305 305 304 304 304 303 300 299 298 297 296 296
312 314 314 315 314 313 312 312 311 311 311 311 311 311 310 309 308 307 307 308 307 307 308 308 309 307 307 309 309 309 309 310 311 312 312 313 314 315 315 315 315 316 315 315 316 316 316 316 317 318 319 319 319 319 319 318 318 318 316 316 315 314 313 312 311 310 309 307 306 305 304 304 305 305 306 306 305 305 304 302 300 299 298 298 297
313 312 313 314 314 313 312 312 311 311 310 310 309 310 310 309 307 306 307 308 307 306 305 307 308 308 308 308 308 308 308 309 310 310 310 311 312 313 314 314 315 315 315 315 315 315 315 317 319 319 320 320 320 319 317 317 318 318 317 315 314 313 313 311 310 308 307 306 305 305 304 304 305 305 305 304 302 302 303 302 300 299 299 297 296
313 312 313 313 313 313 312 311 311 310 310 309 308 309 310 309 308 307 307 307 306 305 304 305 306 307 308 307 307 308 309 309 309 309 307 306 307 310 313 313 315 315 314 314 314 313 312 313 317 320 320 320 320 319 318 317 318 317 316 315 314 313 312 311 309 307 306 305 305 305 305 304 304 304 304 302 301 300 301 300 300 299 297 296 295
312 312 312 312 312 312 312 311 310 310 309 308 308 309 309 308 307 308 308 307 306 307 306 306 306 307 307 307 308 309 309 309 308 307 305 305 306 309 311 312 314 313 313 313 313 313 310 308 312 318 319 319 320 319 318 318 318 317 316 315 314 313 312 310 308 306 306 306 306 306 305 304 303 303 302 302 301 300 300 300 299 298 297 296 295
312 312 312 312 312 312 311 310 310 309 308 307 307 308 308 307 307 308 308 307 307 307 308 307 307 307 306 307 308 309 308 307 306 306 306 306 307 308 309 311 313 313 313 313 313 314 312 309 310 315 318 318 319 318 318 318 317 317 316 314 313 313 311 308 307 306 306 306 305 304 304 304 303 302 301 301 300 300 299 299 298 297 296 295 294
312 312 311 311 311 311 310 310 309 308 307 307 307 308 308 307 308 308 308 308 307 307 307 307 307 307 306 307 309 308 308 307 306 306 306 307 308 308 309 310 312 313 313 313 312 313 314 312 311 311 313 316 318 317 317 317 316 316 315 313 313 312 310 308 307 305 305 305 304 303 303 303 302 301 301 301 300 300 299 298 297 296 295 295 295
311 311 311 310 310 309 309 309 308 308 307 307 307 307 307 307 308 308 307 307 307 307 307 307 306 306 306 307 308 308 308 308 307 306 307 307 306 306 307 309 311 312 313 313 313 312 313 313 314 311 310 314 316 316 316 316 315 315 314 312 312 311 309 306 305 304 304 304 303 303 302 302 301 301 301 301 301 300 299 298 297 296 296 295 295
310 310 310 309 308 309 308 308 307 307 307 306 306 307 307 308 307 307 307 307 307 307 307 306 306 306 306 307 307 308 308 308 307 307 307 306 305 305 306 308 309 311 312 312 313 313 312 313 313 312 311 313 315 315 315 315 314 314 313 311 311 310 307 304 304 304 303 303 302 302 301 301 301 301 300 300 300 299 299 298 297 297 296 296 296
308 308 308 308 308 307 307 307 306 306 306 306 306 306 307 307 307 307 307 307 307 307 307 306 306 306 306 306 306 307 307 307 307 308 307 306 304 304 306 307 309 310 312 312 312 312 312 312 312 311 311 313 313 313 314 314 314 314 313 310 308 307 305 303 303 303 302 302 302 301 301 301 301 301 300 300 299 299 298 298 297 297 296 296 296
306 306 306 306 306 306 306 306 306 305 306 306 306 306 306 306 306 306 306 306 306 306 306 306 306 306 306 305 306 306 307 307 308 308 308 307 305 303 303 306 308 309 311 311 311 311 312 312 311 310 311 312 312 312 312 312 312 312 312 309 305 304 304 303 302 302 301 301 301 301 301 301 300 300 299 299 298 298 298 297 297 297 297 296 296
305 305 305 305 305 305 305 305 305 305 305 305 306 305 305 305 305 305 305 305 305 306 306 306 306 306 305 305 305 305 306 306 307 307 308 308 305 302 302 305 307 309 310 310 311 311 311 311 311 310 310 310 309 310 310 310 310 310 309 307 303 301 301 300 300 300 300 300 300 299 299 298 298 298 298 298 298 297 297 297 297 297 297 296 296
305 304 304 304 304 304 304 304 304 304 304 305 305 305 305 305 305 305 305 305 305 305 305 305 305 305 305 305 305 304 305 305 306 306 306 308 307 304 303 305 307 308 310 310 310 311 311 311 310 310 310 309 308 308 308 308 308 308 306 305 303 300 298 298 298 299 300 299 298 298 298 298 298 298 297 298 298 297 297 297 296 296 295 295 294
304 304 304 304 304 303 303 304 303 303 304 304 303 304 304 305 305 305 305 305 305 305 305 305 305 304 305 305 304 304 304 304 305 305 305 306 307 307 306 306 308 309 310 310 310 311 311 311 311 310 309 308 307 307 306 305 304 303 303 302 300 298 296 295 295 296 296 295 295 297 298 297 297 297 297 297 297 296 296 295 295 294 294 293 293
303 303 303 303 303 303 303 303 303 303 303 303 303 303 303 304 304 304 304 304 304 305 304 305 305 304 304 304 304 304 304 303 304 305 305 305 307 307 308 308 309 308 309 310 311 311 311 311 310 310 308 307 306 305 304 302 299 297 297 296 295 293 293 292 292 293 293 292 293 294 295 295 295 295 296 296 295 295 295 294 293 293 293 292 292
302 302 302 302 302 302 302 302 302 302 302 302 303 303 303 303 303 304 304 304 304 304 304 304 304 304 304 303 303 303 304 304 304 304 305 305 306 307 308 309 308 307 308 310 311 310 310 309 308 308 307 305 303 299 297 296 294 293 293 293 293 292 292 292 292 292 292 293 293 293 293 293 294 294 295 295 295 294 294 293 293 293 292 292 292
301 301 301 302 302 302 302 302 302 302 302 302 302 302 302 303 303 303 303 304 303 304 304 304 304 304 304 304 304 303 303 304 304 304 305 305 306 307 308 308 308 307 308 309 309 309 308 307 306 306 305 302 298 294 294 294 294 294 295 295 295 295 295 294 294 294 294 294 294 293 293 293 294 294 295 295 294 294 293 293 293 292 292 292 292
300 300 300 301 301 301 301 301 301 301 301 302 302 302 302 302 303 303 303 303 303 303 303 303 303 304 304 304 304 304 303 303 303 303 304 304 306 307 307 307 307 307 307 308 308 307 306 305 304 304 302 298 296 295 296 296 296 296 297 296 297 297 297 296 296 296 295 294 293 293 293 294 295 295 295 294 294 294 293 293 293 292 292 292 292
299 300 300 300 300 300 300 300 300 300 301 301 302 302 302 302 302 303 303 303 303 303 303 303 302 303 303 303 303 303 303 304 304 304 304 305 306 307 306 307 307 307 307 307 307 306 304 303 303 302 299 297 297 297 298 297 297 297 296 296 296 296 295 295 295 294 293 292 292 293 294 294 295 295 294 294 294 293 293 292 292 292 292 292 292
299 299 299 299 299 299 299 299 300 300 300 301 301 302 302 302 302 302 302 302 302 302 302 302 302 302 302 302 303 303 303 303 304 304 304 305 306 307 306 306 306 307 306 306 306 305 302 301 301 299 298 298 298 298 297 296 296 296 295 295 295 295 294 294 293 292 292 292 293 294 294 294 294 294 294 293 293 293 292 292 291 291 291 291 291
299 299 299 299 299 299 299 299 300 300 300 301 302 302 302 302 302 302 302 302 302 302 302 302 302 302 302 302 302 302 302 303 303 304 304 305 306 306 306 305 305 306 305 304 304 303 301 299 299 298 298 298 298 297 297 296 296 296 296 296 296 295 294 293 292 292 292 293 293 294 294 294 294 293 293 293 292 292 292 291 291 291 291 291 291
299 299 299 299 299 299 300 300 300 300 301 301 302 302 302 302 302 302 302 302 302 302 302 303 303 303 303 303 303 302 302 303 303 303 304 305 306 306 305 305 304 305 303 302 301 301 299 298 298 298 298 298 297 297 296 296 296 296 296 296 296 295 294 293 292 292 293 293 293 293 293 293 293 292 292 292 292 292 291 291 291 291 290 290 291
Wind_Speed
25 25 25 24 24 24 24 22 21 23 23 22 23 20 20 19 16 14 11 10 10 10 8 7 5 4 6 5 3 3 1 2 4 3 2 3 4 5 4 3 3 4 4 3 2 3 4 2 4 7 8 8 7 9 11 14 17 15 14 14 14 15 15 14 12 11 10 10 11 11 9 6 6 7 9 13 14 13 13 13 14 13 12 12 13
28 26 28 25 25 27 24 23 23 24 25 25 25 22 20 18 15 12 11 10 10 11 8 7 5 4 7 5 3 5 5 5 4 3 3 3 4 5 4 3 3 2 4 5 6 2 3 2 2 3 5 6 7 8 8 11 14 14 12 12 13 14 15 14 13 13 11 10 10 9 7 7 6 5 6 9 11 13 14 14 16 16 13 12 13
31 27 29 26 24 28 27 27 27 25 25 27 26 24 21 18 14 11 10 10 12 12 10 9 7 5 6 5 6 8 8 8 4 4 4 2 3 3 2 5 4 4 2 3 6 6 4 1 2 3 3 3 4 6 6 7 9 10 9 9 11 12 13 12 10 12 12 10 9 8 7 6 5 4 4 5 5 8 11 12 14 16 13 10 11
30 26 27 26 25 30 30 29 30 26 25 27 27 25 23 21 17 13 12 12 13 14 12 11 9 8 8 7 8 8 7 6 4 5 6 4 5 3 3 5 6 8 8 5 6 7 8 5 1 1 2 1 2 4 4 5 5 7 7 8 10 12 11 10 10 11 11 10 8 7 6 5 4 4 3 3 2 4 7 8 10 14 13 9 8
29 27 28 26 27 33 32 29 29 28 27 29 29 28 27 24 19 16 15 14 14 15 13 13 11 10 11 10 9 7 5 7 6 7 7 5 5 4 5 5 5 8 9 7 6 7 9 7 4 3 2 2 1 1 1 1 2 4 6 7 9 10 9 9 10 11 11 11 10 6 4 3 4 5 3 2 1 2 4 6 10 16 17 14 11
30 28 30 29 28 31 31 29 29 30 30 31 30 29 28 23 19 19 19 17 15 14 13 13 12 10 9 9 9 9 9 10 7 8 8 6 5 5 6 7 7 8 8 8 9 9 9 6 5 6 5 6 6 4 4 2 1 1 4 5 5 6 8 9 9 10 12 13 11 8 6 6 6 5 4 4 3 4 5 6 9 13 16 17 16
28 27 29 27 26 28 29 29 32 32 31 32 32 30 27 23 22 22 22 19 17 16 14 14 13 10 9 9 9 11 12 12 9 8 9 7 5 5 7 7 8 9 10 10 11 10 9 8 8 7 5 6 7 7 7 5 4 5 5 3 3 2 3 5 6 7 10 10 8 8 8 9 10 9 8 7 5 5 6 8 8 9 11 14 16
25 28 29 26 30 33 30 30 35 36 32 32 35 34 29 27 25 22 22 21 19 17 15 15 14 13 13 12 11 12 12 12 11 9 8 7 6 6 8 9 9 10 11 10 10 10 10 11 11 10 9 7 6 7 9 6 5 7 7 6 6 7 7 5 4 4 5 3 2 4 4 6 7 8 9 10 9 8 8 8 9 10 11 12 13
17 19 24 28 34 37 33 32 35 34 32 33 37 38 34 30 27 23 23 24 22 18 16 15 14 15 16 13 14 14 11 11 11 10 9 8 8 8 8 8 8 9 9 9 9 9 10 12 13 13 11 8 6 7 8 7 6 6 7 7 7 7 8 10 9 8 8 7 5 3 2 3 2 2 3 5 6 8 8 8 10 11 12 13 14
4 7 14 22 28 32 31 32 35 34 32 32 32 34 36 32 28 26 25 25 24 19 17 17 15 17 17 15 15 13 11 13 12 10 10 10 10 9 7 6 8 8 8 8 9 10 10 10 12 12 12 9 8 8 7 7 7 7 7 7 6 6 7 9 9 8 8 7 6 5 5 5 6 5 5 5 5 5 5 6 9 11 12 13 13
5 6 8 10 17 25 27 24 28 32 33 33 30 29 35 35 31 29 28 27 26 21 19 19 17 18 19 17 15 13 13 16 13 10 11 11 11 9 7 6 6 6 7 8 8 8 8 8 10 11 11 11 10 10 9 10 10 9 8 7 6 5 6 6 7 7 6 6 7 7 6 6 4 2 1 1 1 3 5 7 8 9 10 11 12
5 5 6 7 2 11 20 21 24 29 33 36 33 31 35 36 32 32 31 29 27 23 21 20 18 20 20 19 16 14 16 16 12 11 12 12 11 10 9 8 5 3 5 6 7 7 7 7 7 8 10 10 10 10 9 9 10 10 10 9 8 7 5 4 4 4 3 3 6 7 6 6 6 5 5 5 4 4 5 7 8 9 10 10 10
3 5 8 9 7 3 12 20 26 31 35 36 36 36 35 34 35 37 35 33 29 25 22 20 19 20 21 20 18 15 16 15 12 12 13 12 12 12 10 8 6 3 3 3 4 5 6 6 5 5 6 7 8 9 8 7 7 8 9 8 7 7 5 4 4 3 2 1 2 4 4 4 4 3 2 1 2 2 2 4 6 7 9 9 7
6 7 7 4 3 4 5 15 27 36 35 32 35 37 35 35 38 40 37 33 31 25 21 20 21 22 22 22 20 16 16 15 13 13 14 13 13 12 11 9 7 5 4 3 2 4 5 5 5 4 4 5 5 6 7 8 7 5 6 7 6 6 5 3 3 3 2 1 1 2 2 2 1 1 2 2 1 1 2 4 6 7 7 8 8
7 7 7 4 3 2 2 4 20 35 34 29 29 30 32 33 35 37 36 34 31 25 21 21 22 23 22 22 22 18 15 15 14 13 14 14 14 13 13 10 8 7 7 5 3 4 4 4 4 4 4 4 5 5 6 8 7 4 5 5 5 5 4 3 3 2 2 2 2 1 1 1 2 2 1 0 1 3 3 4 5 7 8 8 6
8 9 10 8 7 3 1 3 11 29 34 30 29 27 29 30 29 29 31 32 31 24 21 22 23 24 23 23 22 19 16 17 16 14 14 14 14 13 14 12 10 10 9 6 4 5 4 3 4 5 4 4 4 4 5 6 6 4 4 4 4 4 3 3 3 3 3 3 3 3 4 4 4 4 5 4 4 4 5 5 4 5 7 9 8
10 10 10 9 10 8 3 4 8 20 28 28 26 25 27 28 27 26 27 28 28 24 21 22 23 23 23 22 21 19 18 18 18 16 15 15 14 13 13 13 12 12 11 8 6 6 5 3 3 4 5 4 4 4 4 4 4 4 4 3 3 4 4 3 3 4 4 4 5 5 5 5 5 5 5 5 5 5 6 6 5 4 5 7 8
11 10 10 10 9 10 7 4 6 10 17 20 20 21 23 25 24 25 26 25 25 23 22 23 23 22 22 21 20 19 17 17 18 16 15 16 16 14 13 13 13 13 13 11 8 6 5 5 4 3 3 4 4 4 4 3 4 4 3 3 2 3 3 3 3 3 4 4 5 5 4 5 5 4 3 3 3 4 4 5 6 6 6 6 6
11 11 11 11 10 11 11 8 6 6 9 14 17 17 19 21 23 26 27 24 21 19 20 21 21 19 19 19 18 18 17 16 16 15 14 15 16 14 13 13 13 13 13 13 10 7 6 5 5 5 3 3 4 5 5 4 6 5 4 4 2 2 2 1 1 1 2 3 3 3 4 5 5 5 5 5 5 4 4 5 5 5 6 6 6
12 13 12 12 11 11 13 12 9 7 7 11 14 14 16 18 20 24 26 22 17 16 16 17 18 16 15 17 17 18 19 18 16 15 14 15 15 14 12 12 14 13 14 14 11 9 8 7 7 7 6 6 6 6 6 6 7 7 5 6 4 3 4 3 1 1 1 0 1 2 2 4 5 5 5 5 7 9 9 9 9 8 7 7 7
14 14 13 14 13 12 13 11 9 11 11 9 10 11 13 16 18 21 25 23 21 19 17 17 17 16 15 16 17 17 18 19 18 17 16 16 16 13 11 12 13 13 14 15 12 10 11 8 8 9 9 9 8 8 9 8 9 8 7 8 7 5 6 6 4 3 3 2 1 1 2 3 5 6 5 4 6 8 10 11 12 11 9 10 10
15 16 15 15 15 14 13 11 9 11 12 12 13 14 15 17 18 20 22 21 19 18 18 17 18 17 15 13 15 17 17 17 18 19 17 17 17 14 12 14 14 13 14 15 13 11 12 11 10 11 11 11 11 11 11 10 11 10 9 10 9 6 6 9 8 5 5 5 2 2 4 5 5 5 5 4 2 4 4 5 6 7 7 8 10
17 17 17 17 17 16 15 13 11 12 11 10 13 16 17 17 16 17 20 20 18 16 18 18 16 15 15 13 13 14 15 15 16 18 18 17 17 16 16 16 15 15 15 15 15 13 13 14 13 13 13 14 14 13 13 13 12 12 12 12 12 9 6 10 10 6 5 8 7 3 4 7 7 6 6 5 5 4 3 2 5 8 9 10 11
18 18 19 18 18 17 16 15 14 12 12 10 9 12 17 19 18 17 16 18 17 16 16 16 15 14 14 14 14 13 15 16 16 18 19 20 19 18 18 15 14 15 15 16 18 15 14 16 16 14 14 15 16 16 17 17 15 14 15 15 14 12 10 11 10 7 6 10 10 6 4 7 8 8 7 6 4 4 4 5 8 9 8 9 10
17 18 18 18 18 17 17 16 15 14 12 11 12 12 13 17 19 20 18 17 17 15 13 13 15 16 15 14 15 14 16 18 18 18 20 22 21 21 19 16 14 17 17 16 17 14 14 18 19 18 18 18 19 19 19 20 18 16 16 17 15 14 12 12 12 9 9 12 12 10 7 8 9 9 7 5 4 6 8 10 11 11 10 10 12
16 17 17 17 17 16 17 16 15 16 14 13 11 10 10 11 12 15 17 18 19 18 17 15 15 17 18 17 15 13 13 17 20 21 21 22 22 22 22 21 19 18 19 19 19 17 18 21 20 20 22 22 21 21 21 21 20 18 19 19 17 15 15 14 13 12 13 14 13 11 10 10 11 10 9 8 8 11 13 13 12 13 13 13 13
14 16 16 16 17 17 17 16 15 15 15 14 14 12 10 10 10 12 14 15 16 17 17 16 16 16 17 16 14 12 9 9 13 16 18 19 19 19 21 23 23 21 23 26 27 25 25 26 24 23 26 26 23 23 23 23 22 21 21 21 19 18 17 16 16 16 15 15 13 12 11 11 11 11 10 10 11 12 13 14 14 15 15 15 15
12 13 15 16 18 18 17 17 15 15 15 14 14 14 14 13 12 12 13 13 14 15 14 14 14 14 14 13 12 11 9 7 6 7 8 8 8 9 12 15 17 20 23 27 30 27 25 25 26 27 28 27 25 25 25 25 25 24 23 22 22 21 19 19 19 18 16 15 15 13 11 11 11 11 10 11 12 13 15 15 15 16 16 17 17
11 12 13 14 17 19 19 19 17 15 14 13 13 12 12 12 11 11 12 12 12 11 10 9 9 10 11 9 7 6 6 4 3 2 4 6 7 8 10 12 14 17 20 22 23 23 22 23 25 27 30 29 28 28 28 29 29 27 25 25 26 24 22 21 21 20 18 17 16 14 12 12 11 11 11 12 13 15 16 16 16 17 17 18 18
13 13 12 10 13 17 18 18 17 16 14 13 12 11 11 11 10 10 11 11 11 11 10 9 7 7 8 6 3 3 3 3 3 2 1 3 5 6 8 13 16 17 18 19 20 22 24 24 24 27 30 31 30 30 30 30 31 30 29 29 29 27 24 23 23 22 20 18 16 13 12 12 12 11 12 14 16 16 17 18 18 18 18 17 18
13 13 14 12 11 14 17 17 17 17 15 15 13 11 10 9 8 9 9 8 8 9 9 8 6 5 7 7 5 4 4 3 4 3 2 1 2 4 5 9 13 14 16 17 18 20 23 24 24 25 29 32 32 31 32 32 31 31 31 30 27 25 23 22 21 20 19 17 15 13 12 13 13 14 15 16 17 17 18 19 20 19 18 17 17
16 12 14 15 11 11 14 15 16 15 14 13 11 9 8 7 6 6 7 5 5 4 5 7 7 5 6 6 6 5 4 2 2 3 2 3 3 4 5 7 9 12 15 17 18 19 20 21 23 24 28 32 33 31 31 32 33 32 31 30 27 24 24 22 20 19 17 15 12 10 11 13 15 17 18 19 19 19 19 19 20 20 20 20 20
17 12 12 15 12 10 11 11 12 12 11 12 10 9 9 7 5 6 6 5 4 3 5 7 8 7 5 4 3 4 4 2 2 2 3 4 3 3 5 7 8 10 12 14 16 18 18 18 20 23 26 29 31 30 28 29 32 33 33 33 31 29 27 23 21 18 16 16 15 12 12 13 15 17 19 19 19 18 17 17 17 19 21 22 23
13 9 11 13 12 11 8 7 8 9 10 11 9 8 9 7 6 6 6 5 4 4 5 5 6 6 5 3 3 4 3 3 3 4 5 5 3 4 6 7 9 10 10 10 13 15 15 15 16 21 25 25 26 27 28 28 30 33 35 35 34 32 27 22 20 20 20 20 18 15 13 13 14 16 17 17 15 14 14 15 16 18 20 22 23
12 4 8 11 13 12 7 6 7 6 6 6 5 6 7 6 6 7 7 6 6 6 6 5 5 5 4 4 4 4 3 3 4 4 4 4 3 4 5 6 8 9 9 9 11 13 14 13 13 18 23 22 20 22 27 30 31 33 35 35 33 31 26 21 22 23 23 21 18 14 13 15 16 16 17 17 16 16 17 19 19 20 21 22 24
1 7 11 11 11 10 7 5 5 2 1 2 4 5 5 5 6 7 6 6 6 6 5 6 6 4 4 4 4 3 2 2 3 4 3 3 4 5 5 6 8 9 10 9 10 11 13 13 13 16 20 20 19 20 25 30 31 31 32 32 32 31 27 25 25 23 20 18 16 15 15 15 15 15 16 18 18 20 21 22 22 23 24 25 25
5 9 10 8 6 5 4 2 1 1 1 1 1 2 3 5 6 6 6 7 7 6 6 6 5 4 4 5 5 4 3 3 4 4 3 4 5 7 6 6 8 10 10 10 10 11 12 13 14 17 19 19 20 20 24 29 31 30 30 30 31 30 27 24 21 17 14 15 15 14 14 14 14 15 16 17 19 21 23 24 25 26 26 26 26
3 4 5 1 1 1 2 3 4 3 3 4 5 4 4 5 6 7 7 7 7 7 6 6 5 5 5 5 5 5 5 6 6 5 5 6 7 7 7 6 8 10 11 11 11 11 13 15 17 19 19 19 19 19 21 25 28 29 30 29 29 28 24 19 15 12 12 13 13 12 12 15 17 17 18 20 22 24 25 26 27 28 27 28 28
4 4 5 7 6 5 6 8 9 7 6 6 7 6 6 7 7 8 8 8 8 7 6 6 6 6 6 7 7 8 8 8 8 7 7 8 7 7 7 7 9 10 12 13 12 13 16 19 20 20 18 18 17 17 18 21 23 26 28 27 26 25 21 17 14 12 11 11 11 9 12 17 19 18 20 22 23 24 26 27 28 29 30 31 32
10 9 10 10 9 7 7 9 11 11 10 9 9 9 9 10 10 10 10 10 10 9 9 9 8 8 8 8 9 10 10 9 9 8 9 9 9 9 9 8 9 11 12 13 13 14 19 22 20 18 16 16 16 16 18 21 23 25 26 25 23 22 20 17 15 13 11 9 9 12 15 17 18 19 20 22 23 25 26 28 29 31 32 33 35
15 15 15 14 13 11 10 11 13 13 12 11 12 13 13 12 12 12 13 13 12 12 12 11 11 11 11 11 11 11 11 10 10 10 10 11 11 11 10 10 11 11 13 15 16 17 21 22 21 18 17 15 15 15 17 20 23 24 24 23 21 19 18 17 16 15 15 13 12 15 17 17 18 20 21 22 25 27 29 31 32 33 35 36 38
18 18 17 16 16 16 15 16 16 15 15 14 14 15 16 16 15 15 14 14 13 13 13 14 14 14 13 13 13 13 13 13 12 12 13 13 13 12 11 11 11 12 15 18 20 21 23 23 21 19 18 15 13 13 15 18 20 21 22 21 19 18 17 18 19 18 17 16 14 14 17 18 20 22 23 25 28 30 33 35 35 36 36 36 36
20 20 19 19 19 20 20 21 20 18 18 17 17 18 18 19 19 18 17 17 17 16 17 16 16 16 16 16 16 16 16 16 16 16 15 15 14 13 12 12 12 15 17 20 21 22 22 21 19 18 17 15 11 11 14 15 16 17 18 17 17 15 15 17 18 18 18 18 15 15 18 21 21 23 25 27 29 31 31 31 31 30 29 28 27
22 22 22 22 22 23 24 24 23 22 21 21 21 21 20 20 21 20 19 19 19 18 19 19 19 19 19 18 18 18 18 18 18 17 17 17 16 14 13 14 16 18 19 21 22 22 20 18 18 17 16 13 11 11 13 14 13 13 12 12 12 11 11 12 14 15 15 16 16 17 20 21 21 22 24 25 26 25 24 22 22 21 20 19 19
26 25 25 25 25 25 25 26 25 24 24 23 23 23 23 23 23 22 22 22 22 22 22 21 21 20 19 19 19 19 18 18 18 18 18 18 17 15 15 17 17 18 18 19 20 20 19 19 18 16 14 12 11 11 12 12 11 9 8 8 7 7 7 9 11 12 13 15 17 17 18 18 19 20 21 21 21 20 19 19 19 17 16 16 17
29 29 29 28 28 28 29 28 27 26 26 26 25 24 25 25 25 24 23 23 22 23 24 23 22 22 21 20 20 19 19 18 18 18 18 19 18 17 17 17 16 16 16 17 18 19 19 18 16 14 13 13 12 11 10 11 11 10 8 6 5 5 6 8 10 12 13 14 14 14 16 17 17 16 16 17 18 18 19 18 17 15 15 16 17
31 30 30 30 30 30 29 28 27 26 25 25 25 25 25 26 25 25 25 24 25 26 27 26 24 23 21 20 20 21 21 20 20 19 19 19 20 20 18 16 16 16 17 17 19 20 19 18 16 15 15 15 14 12 11 11 10 9 7 5 5 6 8 10 10 11 11 12 13 15 16 14 12 12 12 13 14 15 16 16 16 15 15 16 17
32 31 31 30 29 29 29 29 28 27 25 23 23 24 25 25 26 27 27 27 27 28 27 26 24 23 23 23 23 23 22 19 19 20 21 20 20 19 18 16 15 16 17 18 20 20 19 19 18 18 19 18 16 13 11 8 6 5 4 4 4 6 7 9 9 10 11 13 14 14 11 8 8 10 12 12 12 14 15 16 16 16 16 17 18
32 32 31 30 29 29 28 29 30 28 26 25 24 25 26 25 26 27 28 28 29 27 27 26 25 26 26 25 24 25 22 18 17 20 22 21 19 18 18 17 16 16 16 17 19 21 21 21 21 21 21 20 17 13 9 7 6 6 6 5 4 5 6 8 9 10 11 11 9 7 6 7 9 12 13 13 13 15 16 16 17 18 20 21 21
32 32 30 28 27 28 28 28 29 29 28 28 28 28 27 26 26 26 26 27 28 27 27 27 27 26 26 25 24 24 23 21 20 21 22 22 20 19 18 17 16 15 15 16 19 22 24 23 23 23 21 18 15 11 9 8 8 7 6 5 4 5 6 7 8 8 8 6 4 6 7 9 12 13 13 13 14 16 17 18 20 21 21 22 22
28 30 30 26 25 26 26 27 28 29 28 29 28 28 28 27 26 27 27 27 27 27 27 27 26 25 25 25 24 23 21 21 23 23 23 23 22 19 16 14 13 14 16 18 20 22 22 20 19 20 18 16 13 10 8 8 6 5 3 3 3 4 5 6 6 5 3 5 7 7 9 11 12 13 13 14 15 18 20 21 23 23 23 23 24
Wind_Direction
182 191 178 171 173 174 179 174 172 178 174 173 173 174 178 171 167 171 170 170 145 121 106 97 114 113 106 124 126 95 76 181 153 134 166 178 149 140 146 144 113 116 130 134 159 267 269 241 248 253 253 243 231 235 238 235 232 225 217 210 203 203 207 212 223 237 245 254 256 257 261 262 258 263 265 265 263 252 240 232 225 224 226 223 227
173 184 180 178 176 177 184 179 178 184 179 179 179 178 179 169 165 175 178 168 135 121 125 132 145 124 114 126 118 88 87 116 129 137 190 237 192 180 187 153 111 134 167 152 146 199 276 295 264 248 246 233 231 237 232 232 234 230 224 223 218 215 222 227 233 238 235 240 253 259 262 259 256 266 288 290 273 250 236 228 224 225 227 230 234
175 185 181 179 181 181 185 184 185 187 185 186 184 180 177 168 173 188 186 171 146 143 152 153 158 135 123 135 139 139 143 154 158 117 103 74 108 138 162 138 114 95 103 136 153 161 142 57 307 253 240 227 232 234 217 218 227 223 220 224 222 217 223 229 232 237 234 232 241 252 254 242 242 265 300 311 279 244 229 223 225 225 227 243 251
177 185 183 184 190 186 184 186 187 187 186 190 189 185 178 171 182 193 184 181 167 157 160 164 171 160 156 168 167 177 186 172 154 116 107 99 109 118 140 150 139 122 116 127 160 163 147 127 101 244 258 255 247 234 200 195 201 203 212 215 215 217 224 231 233 232 232 236 238 241 246 236 233 248 293 344 298 246 231 224 232 231 234 256 272
180 184 188 193 193 189 188 188 193 196 194 194 191 187 181 175 184 188 175 186 182 164 168 174 175 170 170 177 174 174 148 122 115 100 98 93 95 92 94 102 109 121 127 129 136 144 143 137 123 122 112 92 53 343 83 150 187 204 217 209 207 220 227 233 236 227 225 238 241 236 247 256 249 245 267 317 281 255 242 229 236 238 241 250 261
181 185 187 191 186 187 193 194 196 201 201 200 195 191 189 186 191 186 174 188 192 175 176 174 173 177 167 158 151 137 123 128 128 109 114 119 108 101 96 94 95 102 107 108 108 117 129 131 126 133 141 139 140 133 117 114 133 189 216 209 209 227 229 229 236 230 227 236 239 243 259 267 264 253 257 273 260 251 252 241 238 240 244 249 255
181 185 184 194 197 194 201 207 205 204 205 204 201 198 196 190 189 183 176 192 198 184 179 170 171 174 153 143 136 132 138 145 145 140 150 154 133 115 103 93 89 88 88 91 97 104 118 126 117 108 108 125 138 141 132 125 147 153 151 169 175 156 194 222 229 218 216 227 238 246 255 258 259 258 262 266 263 257 253 250 250 254 259 259 260
193 188 182 197 209 203 204 209 205 204 208 210 205 199 192 190 194 188 179 193 200 190 180 169 167 161 152 150 144 146 158 158 156 162 163 149 122 102 98 93 86 86 88 91 101 108 115 121 115 98 86 98 120 133 134 135 160 165 147 139 143 120 105 109 111 135 160 167 217 240 252 267 266 265 268 266 264 266 264 265 270 271 275 278 275
204 192 180 187 200 200 202 207 206 206 209 210 206 199 194 195 200 192 183 193 200 191 180 172 163 154 153 153 151 160 166 158 158 160 151 137 123 112 111 111 104 102 102 100 103 107 113 121 123 116 107 110 125 133 146 156 156 158 155 158 168 156 129 117 108 106 111 98 74 61 17 351 352 343 316 301 284 274 275 294 304 293 286 288 283
235 215 199 198 204 202 200 201 205 209 211 210 207 203 199 198 198 190 186 195 199 190 179 174 163 152 152 155 160 168 160 151 158 159 148 141 140 142 140 124 113 109 103 99 98 100 106 115 121 121 112 105 101 100 112 129 127 129 144 160 177 183 168 153 146 143 142 134 116 101 89 74 61 54 43 34 17 344 322 312 310 303 297 300 295
288 265 247 226 219 214 208 206 206 207 211 215 212 203 195 192 191 188 188 195 195 188 180 175 167 155 154 161 169 170 155 157 167 163 154 152 152 154 143 128 123 112 101 98 98 98 102 108 115 117 113 107 100 93 93 102 107 107 111 124 135 147 165 176 185 192 193 187 174 161 140 130 130 115 105 99 46 356 319 302 304 310 306 303 300
294 313 355 14 348 222 216 223 226 217 213 213 207 198 190 186 189 188 187 194 194 187 181 178 170 159 158 166 174 171 159 166 177 165 160 161 158 155 153 156 157 130 110 105 99 100 102 103 111 115 118 118 110 103 104 109 114 115 113 116 117 117 125 134 155 183 200 188 183 187 189 197 214 231 242 244 250 264 284 308 317 316 305 291 284
336 25 19 9 6 292 223 223 226 218 211 208 204 203 198 192 193 188 185 192 193 186 181 180 172 164 165 169 176 175 163 169 178 166 166 168 162 163 167 173 178 168 153 138 119 115 111 105 106 110 118 122 119 118 114 104 106 118 121 119 116 115 114 113 117 125 124 134 157 178 199 214 222 224 216 226 317 292 279 309 300 293 302 311 315
47 50 34 359 344 325 256 221 215 210 207 204 200 201 199 191 187 184 184 190 190 184 183 183 175 169 171 173 178 179 163 168 180 173 173 173 167 171 177 181 186 190 197 199 163 132 128 125 115 109 111 114 119 124 114 101 99 114 121 117 112 107 101 98 102 101 105 112 132 181 222 240 233 210 173 132 32 313 238 267 287 297 319 341 357
72 66 55 30 12 344 314 206 203 201 198 191 188 193 194 190 187 184 184 187 185 184 188 188 177 171 174 177 183 182 166 166 177 179 179 179 176 175 179 189 195 202 215 224 204 166 161 160 139 128 127 121 122 125 126 130 137 136 123 113 102 95 89 81 75 68 67 68 68 25 342 14 1 342 332 270 286 290 276 280 311 331 336 343 352
85 70 61 48 37 37 55 67 171 188 190 187 186 194 197 196 198 192 184 184 185 186 190 189 178 173 175 180 185 185 174 167 173 184 185 183 188 182 179 193 202 208 220 227 213 194 186 178 156 148 146 136 133 137 140 149 157 152 135 129 117 107 100 89 82 74 67 64 60 43 34 36 21 5 358 350 339 323 313 314 328 339 339 345 349
84 73 69 66 50 46 68 81 129 172 184 186 186 191 193 195 201 196 184 182 185 185 188 190 184 177 175 180 184 184 181 173 172 187 190 184 194 194 184 193 204 213 224 232 226 214 210 203 178 160 156 157 153 156 159 156 161 161 146 146 139 128 118 105 97 91 86 80 73 63 53 49 33 13 5 356 350 342 332 329 330 333 336 340 340
92 84 78 82 76 62 67 88 106 146 170 178 183 187 189 191 196 195 187 182 184 185 187 190 187 181 177 179 182 181 183 180 176 189 196 186 190 198 193 193 204 217 226 233 234 227 228 229 221 204 176 174 172 178 189 173 172 180 166 166 160 140 141 131 120 108 100 94 80 69 63 59 47 33 37 27 3 350 339 333 325 321 318 313 312
101 96 89 88 92 82 76 87 109 129 158 174 180 187 194 196 199 197 185 175 176 179 184 188 186 182 179 180 182 179 179 181 180 192 201 193 192 201 204 200 204 217 225 231 237 236 240 244 246 253 242 223 211 204 209 191 189 204 194 196 206 160 169 168 131 130 108 104 89 75 66 52 36 36 44 29 22 26 12 359 344 328 317 304 304
110 104 102 98 101 107 98 89 92 108 144 176 178 185 198 198 198 197 189 181 176 172 178 185 184 183 184 183 182 181 181 181 181 189 197 197 194 196 205 207 204 212 222 229 238 244 249 254 259 269 269 258 252 239 234 215 205 216 213 217 223 179 193 234 238 205 226 111 64 55 69 53 30 26 29 11 6 11 8 6 4 357 348 332 326
117 113 113 107 108 120 122 112 102 105 118 150 167 183 196 186 178 183 187 186 182 176 176 179 180 184 188 189 189 188 186 185 186 188 191 199 201 198 207 215 209 212 226 233 235 240 249 253 254 264 269 265 262 254 248 238 227 228 220 218 225 196 196 226 244 249 263 275 329 314 309 1 20 20 23 18 359 347 345 353 355 355 357 345 330
122 120 119 115 112 114 120 128 138 136 124 118 128 149 169 172 168 170 174 174 176 182 184 181 183 187 189 196 203 200 195 194 196 197 200 209 209 199 204 216 214 214 227 238 237 232 242 253 252 252 258 261 262 258 253 246 240 239 229 222 235 234 199 211 237 262 264 265 272 224 249 286 334 355 360 11 342 295 304 330 326 315 312 309 302
126 123 121 119 119 116 115 115 131 157 154 124 114 125 140 154 160 166 172 170 171 184 189 185 184 186 189 200 213 211 205 202 202 203 209 216 210 198 203 214 220 219 225 240 247 241 245 255 256 248 247 252 254 253 254 252 245 241 238 236 245 254 225 217 239 257 243 254 278 283 238 264 296 322 332 344 337 315 320 290 266 277 289 298 301
129 127 125 123 121 118 117 111 112 134 158 165 155 135 130 133 134 142 157 166 172 186 194 193 189 188 193 204 213 214 208 204 204 205 210 215 211 205 204 209 221 227 228 235 240 244 253 255 256 251 244 246 248 246 250 254 251 243 241 243 248 253 242 233 246 251 217 231 258 274 255 261 285 306 315 329 333 317 316 295 283 288 292 292 295
134 132 130 127 124 119 116 115 111 116 131 154 173 172 152 137 133 132 136 147 158 166 173 181 189 191 193 197 204 208 205 205 205 203 205 209 211 212 207 204 213 225 233 234 228 236 251 249 253 258 251 247 248 245 244 247 247 243 241 243 248 250 244 238 243 238 216 221 240 253 250 249 264 282 293 298 279 269 279 287 291 292 286 280 277
139 135 132 128 125 121 116 115 113 111 110 113 128 152 162 158 152 144 140 143 150 157 163 167 174 185 188 187 192 199 204 208 209 210 214 219 222 225 221 219 222 227 239 244 240 248 257 250 251 257 254 250 247 242 243 244 242 240 242 245 243 240 239 238 238 232 227 233 243 248 247 247 258 270 276 275 272 276 284 291 291 291 291 288 284
140 134 133 128 124 122 117 114 112 111 108 104 104 107 119 136 148 155 155 151 150 155 159 159 161 172 180 180 181 186 188 199 209 216 224 227 228 231 232 233 240 245 247 248 249 255 260 257 254 251 251 253 246 238 240 243 241 239 243 246 240 234 236 238 237 237 241 248 254 255 254 255 261 268 271 276 283 286 289 293 294 293 293 291 290
151 143 141 136 131 128 123 120 118 115 112 109 107 104 105 110 117 135 147 148 151 154 151 153 159 161 160 157 158 163 159 158 182 210 228 229 221 230 239 241 248 255 254 251 252 254 255 257 256 251 250 251 246 241 239 240 244 243 241 241 238 238 240 238 237 239 241 247 253 260 263 263 270 277 279 284 292 293 292 295 295 295 294 292 292
173 158 147 143 139 135 133 132 128 126 122 118 116 114 113 113 111 119 130 131 137 143 139 142 151 155 158 155 144 151 161 160 171 209 237 237 234 244 251 247 248 255 257 255 257 258 257 258 257 253 251 247 245 246 242 239 242 241 236 236 240 245 246 238 234 237 239 244 252 261 264 267 278 289 289 291 295 296 296 297 296 295 295 294 293
191 170 159 158 149 141 139 138 135 133 132 129 127 125 122 120 118 117 121 123 125 125 126 134 145 151 154 150 132 131 130 115 117 125 216 256 267 275 267 258 258 262 265 266 266 261 259 259 257 252 250 247 245 244 243 242 241 238 236 236 241 248 246 236 234 237 240 245 252 260 267 274 285 289 289 292 294 296 299 298 297 296 294 292 291
220 190 173 169 162 153 145 141 142 142 141 139 137 138 139 144 150 137 120 121 128 124 120 123 127 125 124 132 143 130 103 108 124 117 101 122 270 279 271 264 264 263 262 265 266 263 264 267 262 253 249 250 250 244 240 240 240 238 238 237 238 240 234 228 230 234 239 249 259 264 268 277 285 290 295 296 293 296 299 298 298 298 296 296 295
252 231 181 167 171 168 152 145 148 149 148 149 147 150 155 168 183 163 143 159 177 168 155 141 129 118 121 140 155 134 109 130 149 144 164 192 222 249 261 262 263 259 252 250 251 254 261 268 267 259 252 253 255 249 243 241 239 239 239 234 229 227 222 220 224 230 237 248 254 255 261 272 283 291 298 299 297 300 304 301 302 303 304 305 306
260 244 187 174 176 166 152 147 149 147 145 147 149 154 154 151 159 158 162 186 198 187 182 166 149 148 153 160 158 132 124 153 189 241 269 274 257 247 253 248 248 252 251 249 248 247 249 256 261 261 257 253 252 248 243 240 236 234 233 229 226 228 227 225 226 229 231 229 231 243 258 269 281 288 293 294 293 301 307 303 301 301 303 306 307
288 251 188 178 167 150 144 138 133 137 142 143 147 158 158 153 155 161 164 170 164 156 157 152 149 158 161 152 150 154 167 199 247 283 297 301 273 240 249 246 244 247 247 252 255 252 253 255 254 255 256 254 251 243 236 234 232 230 229 229 230 232 231 230 230 231 230 230 241 257 257 254 267 277 281 283 284 291 294 289 287 291 296 300 301
314 266 159 149 137 127 128 126 120 132 154 156 158 162 163 170 174 173 174 174 176 177 169 161 164 168 166 164 166 177 206 249 287 300 309 311 291 269 266 261 259 257 250 250 257 260 266 268 259 253 254 255 252 243 236 235 234 233 231 230 231 232 232 234 235 235 239 244 253 260 254 255 266 267 263 264 267 271 274 276 280 285 289 291 291
32 121 114 117 120 114 113 111 94 77 157 176 171 163 164 178 182 186 193 192 189 192 189 186 183 179 183 186 185 196 221 259 291 302 310 313 298 287 281 271 268 268 261 255 256 260 269 275 272 264 258 254 250 243 237 232 229 230 231 228 229 232 235 235 234 239 249 256 260 264 267 271 274 268 262 264 268 273 277 280 283 286 289 290 291
102 129 117 106 105 105 113 109 57 338 304 300 216 193 199 203 206 215 216 209 209 212 214 212 206 205 209 204 203 213 224 234 255 274 282 280 283 291 294 282 274 276 274 267 257 255 261 265 265 264 262 255 250 246 239 232 229 232 234 230 228 232 233 233 235 244 251 253 263 277 277 272 267 263 263 266 269 273 277 281 285 289 291 292 293
62 169 165 154 317 299 283 294 299 284 283 294 284 263 243 230 231 237 232 228 231 230 228 227 226 228 231 228 228 229 229 238 249 259 266 271 286 297 296 287 278 274 271 266 261 259 257 253 254 259 263 261 259 255 246 238 237 239 238 233 231 231 228 224 227 234 239 254 280 291 273 264 263 262 264 268 270 273 278 282 286 289 289 290 292
321 256 255 276 279 269 275 291 299 299 293 282 273 268 262 252 248 251 249 246 246 246 248 250 250 253 253 252 251 246 245 250 253 254 260 271 286 293 285 278 275 271 268 265 262 257 252 251 255 262 266 265 263 259 251 244 242 242 239 235 230 227 224 219 219 225 239 267 293 286 257 257 262 265 270 273 272 275 279 282 284 284 285 287 290
310 301 298 304 309 300 283 282 285 285 280 273 270 272 271 264 259 257 257 257 257 259 262 261 261 263 266 265 262 259 260 260 256 254 258 263 275 284 284 275 267 265 266 263 257 249 248 253 259 264 265 264 262 261 255 249 245 242 239 234 226 223 223 218 215 220 227 238 256 258 254 259 265 268 271 273 274 277 279 280 281 282 284 286 287
304 309 314 316 316 309 293 284 285 286 282 278 275 272 270 268 265 263 262 263 263 262 262 263 264 266 268 268 266 265 264 260 256 257 258 260 269 281 283 273 265 262 261 257 250 244 247 256 262 266 268 272 272 266 255 247 245 242 236 230 223 220 220 216 215 220 224 225 237 254 260 263 267 268 270 272 275 277 278 278 279 280 282 284 285
297 304 308 305 300 296 288 282 282 282 278 275 275 273 271 269 267 266 266 265 265 265 265 266 267 268 268 267 265 262 259 256 255 258 260 262 267 274 272 266 263 259 257 254 251 248 251 257 261 266 273 281 282 265 248 241 240 237 232 229 229 227 226 226 228 232 234 233 237 253 265 267 266 267 270 274 276 277 278 279 280 281 282 283 284
290 290 289 289 288 286 283 281 281 281 279 276 273 270 269 268 267 267 268 268 269 269 269 268 267 266 264 263 262 260 258 257 257 259 262 263 264 268 269 262 252 248 250 252 252 252 252 251 250 257 269 278 273 247 232 227 228 229 230 232 237 239 239 237 236 236 240 242 241 248 259 265 268 271 274 276 278 280 281 282 283 285 286 287 289
287 285 284 286 286 283 282 281 280 278 276 276 274 271 269 268 267 266 266 268 269 269 270 270 269 267 266 265 265 263 262 261 260 260 261 261 260 263 263 254 247 247 250 250 250 249 243 236 238 249 259 260 244 223 215 214 216 222 227 231 236 243 247 246 245 245 248 252 251 251 257 265 273 278 280 282 285 288 292 294 297 299 300 302 304
284 283 282 283 282 280 280 279 278 276 274 273 274 274 272 269 266 265 265 267 268 268 268 268 269 268 268 269 268 266 264 262 260 260 259 258 257 256 254 252 251 251 248 242 240 238 229 223 231 243 242 230 214 202 199 200 200 202 205 210 219 229 238 246 251 253 256 258 259 261 268 277 285 289 294 300 306 311 313 313 314 315 315 316 315
280 279 278 277 276 275 275 274 274 274 274 274 272 271 269 266 264 265 265 264 265 266 266 267 268 269 270 269 267 265 263 261 261 260 259 257 253 248 248 252 252 247 239 229 224 224 218 215 222 229 219 202 188 180 179 181 182 181 182 191 209 227 240 248 254 259 264 267 273 282 289 293 298 306 313 319 323 323 319 316 317 317 316 314 313
282 280 278 276 276 275 275 276 276 273 271 270 269 269 268 267 266 266 264 263 264 266 265 263 262 264 267 268 268 265 263 261 261 261 262 260 251 244 245 249 247 244 241 233 226 222 215 211 212 207 194 183 175 170 172 176 179 181 185 201 225 240 248 254 262 273 283 291 297 299 298 302 314 322 321 320 319 315 311 310 310 308 306 305 303
284 283 282 282 283 282 279 281 284 284 280 275 272 271 271 270 268 266 264 264 265 265 262 260 261 263 264 266 268 268 265 262 260 260 261 259 250 243 241 238 236 242 245 238 228 219 209 205 203 192 180 176 173 173 177 181 181 189 202 221 242 253 260 269 279 289 295 295 293 292 295 309 317 307 298 295 295 295 296 299 301 302 302 302 301
287 289 288 287 288 287 285 284 286 286 285 281 277 274 272 270 269 267 266 267 269 269 266 264 265 266 263 263 265 265 265 265 262 260 259 255 247 240 235 230 233 241 240 229 220 209 198 192 187 179 174 176 176 176 179 183 184 193 205 221 246 256 264 273 282 291 292 286 287 308 327 317 298 291 289 289 290 292 296 302 306 308 307 305 305
288 291 291 290 287 285 285 284 283 283 282 280 278 276 273 270 268 266 264 264 266 268 267 265 264 263 260 259 260 262 264 262 257 256 259 253 241 233 233 236 242 240 223 210 207 201 192 185 179 173 172 176 179 178 179 184 186 189 199 218 242 261 275 284 292 298 298 298 326 350 332 306 294 295 299 301 301 302 305 308 311 310 309 308 307
287 286 286 288 287 283 281 280 280 281 281 279 277 276 274 271 269 266 263 261 261 263 263 261 259 258 256 254 254 255 257 256 253 254 257 251 236 224 222 228 232 220 200 191 194 192 185 180 179 175 171 173 178 180 181 183 184 186 205 241 272 284 293 309 318 316 334 10 3 334 309 302 303 306 308 309 308 307 306 306 307 309 311 312 308